Location: Hartman Creek State Park
(44.3257°N, 89.2134°W)
Time: 10:15:38
(UTC-05:00)

Cosmos 2263 Rocket - Visible Passes

Search period start: 24 April 2017 00:00
Search period end: 04 May 2017 00:00
Orbit: 825 x 847 km, 71.0° (Epoch: 22 April)

Date Brightness Start Highest point End Pass type
(mag) Time Alt. Az. Time Alt. Az. Time Alt. Az.
24 Apr 2.4 20:58:44 10° NNW 21:04:15 57° ENE 21:08:25 17° SE visible
24 Apr 4.0 22:43:34 10° NW 22:47:42 22° W 22:50:08 16° SW visible
25 Apr 2.5 20:42:02 10° NNW 20:47:30 53° ENE 20:52:31 12° SE visible
25 Apr 4.0 22:26:43 10° NW 22:31:02 24° WSW 22:34:14 14° SW visible
26 Apr 2.5 20:25:21 10° NNW 20:30:46 49° ENE 20:36:09 10° SE visible
26 Apr 3.9 22:09:52 10° NW 22:14:22 26° WSW 22:18:24 12° SSW visible
27 Apr 3.8 21:53:02 10° NW 21:57:41 28° WSW 22:02:20 10° SSW visible
28 Apr 3.8 21:36:14 10° NW 21:41:01 30° WSW 21:45:47 10° SSW visible
29 Apr 3.7 21:19:25 10° NW 21:24:20 33° WSW 21:29:15 10° SSW visible
30 Apr 3.6 21:02:37 10° NW 21:07:39 35° WSW 21:12:40 10° S visible
01 May 3.5 20:45:50 10° NW 20:50:58 39° WSW 20:56:05 10° S visible
02 May 3.4 20:29:03 10° NW 20:34:16 42° WSW 20:39:29 10° S visible
